OUFTI-1
1 41458U 16025C 18291.71555734 .00002039 00000-0 10774-3 0 9990
2 41458 98.1244 1.1123 0170669 93.5637 268.5108 15.05067276136023
e-st@r-II
1 41459U 16025D 18291.74570173 .00002759 00000-0 14547-3 0 9999
2 41459 98.1241 0.9306 0170764 94.2845 267.7901 15.04765638136002
AAUSAT4
1 41460U 16025E 18291.73368402 .00003389 00000-0 17512-3 0 9995
2 41460 98.1184 1.6336 0161744 89.4171 272.5579 15.06356966136082
LO-87
1 41557U 16033B 18291.72381849 .00000809 00000-0 33234-4 0 9994
2 41557 97.4325 15.5550 0014603 76.4444 283.8420 15.27030019133011
NuSat2
1 41558U 16033C 18291.78709553 .00001514 00000-0 57250-4 0 9995
2 41558 97.4344 15.9176 0014793 80.6773 279.6139 15.28463659133025
Lapan A3
1 41603U 16040E 18291.87695958 .00000182 00000-0 11725-4 0 9994
2 41603 97.3973 351.0566 0013885 161.6583 318.1768 15.19620687128869
Swayam
1 41607U 16040J 18291.82086867 .00001707 00000-0 76314-4 0 9995
2 41607 97.4000 353.0220 0014297 158.5298 201.6541 15.22595102128918
Pratham
1 41783U 16059A 18291.72961934 .00000046 00000-0 18171-4 0 9998
2 41783 98.1040 351.2037 0034784 68.7285 291.7626 14.62949421110029
AlSat 1N
1 41789U 16059G 18291.71948992 .00000107 00000-0 29339-4 0 9998
2 41789 98.1058 352.6728 0029509 60.3521 300.0610 14.64187594110097
ScatSat
1 41790U 16059H 18291.75998784 .00000008 00000-0 13208-4 0 9996
2 41790 98.2461 337.2171 0019508 73.5670 286.7667 14.50876915109107
TY-1
1 41844U 16066D 18291.89392632 .00001953 00000-0 84351-4 0 9996
2 41844 97.4076 297.2517 0014509 328.1697 160.0118 15.23616135107710
Pegasus-1
1 41846U 16066F 18290.63330424 .00000254 00000-0 50001-4 0 9998
2 41846 098.7447 321.5493 0367049 243.4018 112.9125 14.37421660101492
CAS-2T
1 41847U 16066G 18291.55531821 .00000056 00000-0 19804-4 0 9991
2 41847 98.7400 322.9792 0365200 237.8326 118.6951 14.37929609102054
TO-89
1 41932U 98067KU 18291.42677798 .00080285 00000-0 28405-3 0 9995
2 41932 51.6282 61.2213 0004993 318.9693 41.0935 15.88322592100260
AOBA-V3LOX3
1 41935U 98067KX 18291.78566128 .00373839 77287-4 46140-3 0 9992
2 41935 51.6266 47.6706 0008723 331.2496 28.8035 16.07215530100577
EO-88
1 42017U 17008BX 18290.76301349 .00001654 00000-0 69572-4 0 9992
2 42017 97.4358 355.0319 0005129 320.4378 39.6485 15.24807040 92740
HAVELSAT
1 42700U 98067LH 18291.69505671 .00055778 00000-0 29472-3 0 9992
2 42700 51.6291 79.6701 0003337 342.8978 17.1910 15.80042620 81484
SOMP2
1 42701U 98067LJ 18291.84896570 .00045433 00000-0 26241-3 0 9999
2 42701 51.6337 81.4999 0003196 329.2320 30.8493 15.78157476 81468
PHOENIX
1 42706U 98067LP 18291.64699145 .00031074 00000-0 20778-3 0 9996
2 42706 51.6320 84.6780 0001744 285.9472 74.1335 15.75016984 81327
X-CubeSat
1 42707U 98067LQ 18291.66463502 .00062108 00000-0 30340-3 0 9993
2 42707 51.6297 78.6200 0002995 298.8386 61.2315 15.81708640 81393
qbee
1 42708U 98067LR 18291.77233314 .00054583 00000-0 29384-3 0 9996
2 42708 51.6296 80.2005 0001939 298.3913 61.6893 15.79645062 81348
ZA-AeroSat
1 42713U 98067LU 18291.66099427 .00030286 00000-0 21632-3 0 9997
2 42713 51.6321 88.5155 0002477 275.0640 85.0076 15.73494018 80931
LINK
1 42714U 98067LV 18265.92001965 .06744984 12188-4 74906-3 0 9997
2 42714 051.6396 192.6696 0007557 179.7176 180.2695 16.36256502077350
UPSat
1 42716U 98067LX 18291.83560640 .00202617 27597-4 45902-3 0 9998
2 42716 51.6254 66.8688 0006757 320.9580 39.0940 15.97104015 81365
SpaceCube
1 42717U 98067LY 18291.68307433 .00051394 00000-0 27890-3 0 9997
2 42717 51.6250 81.0353 0002656 332.1546 27.9312 15.79491464 80401
Hoopoe
1 42718U 98067LZ 18291.63679638 .00099021 00000-0 37687-3 0 9996
2 42718 51.6264 74.6571 0003958 314.3951 45.6729 15.86768424 80483
NJUST-1
1 42722U 98067MB 18291.81044990 .00028084 00000-0 21396-3 0 9999
2 42722 51.6338 90.3083 0004310 333.7054 26.3725 15.72008511 79990
UNSW-EC0
1 42723U 98067MC 18291.64315420 .00131291 17422-4 42983-3 0 9990
2 42723 51.6364 73.3199 0005782 321.1222 38.9367 15.90354654 80187
LO-90
1 42725U 98067ME 18291.86229566 .00049572 00000-0 30277-3 0 9994
2 42725 51.6374 84.3637 0002919 333.7677 142.4967 15.76861723 79988
nSIGHT1
1 42726U 98067MF 18291.74757154 .00012103 00000-0 13140-3 0 9991
2 42726 51.6375 103.5323 0004449 337.3141 22.7657 15.63947955 79728
SNUSAT 1B
1 42727U 98067MG 18291.85671328 .00040156 00000-0 24773-3 0 9995
2 42727 51.6313 84.4939 0005467 302.8224 57.2249 15.76716121 79948
QBITO
1 42728U 98067MH 18291.67004264 .00053146 00000-0 27804-3 0 9996
2 42728 51.6339 81.1185 0002789 316.0854 43.9925 15.80282369 79810
Aalto-2
1 42729U 98067MJ 18291.67619063 .00059826 00000-0 29944-3 0 9994
2 42729 51.6282 80.2830 0002860 316.0316 44.0458 15.81198435 79834
SUSat
1 42730U 98067MK 18291.65062093 .00045162 00000-0 26650-3 0 9998
2 42730 51.6336 83.9155 0002383 321.7754 38.3077 15.77681302 79776
i-INSPIRE II
1 42731U 98067ML 18291.63005556 .00141711 18670-4 41961-3 0 9993
2 42731 51.6316 71.5943 0006866 303.3381 56.6968 15.92251895 79987
PolyITAN-2-SAU
1 42732U 98067MM 18291.81766733 .00065136 00000-0 32375-3 0 9994
2 42732 51.6310 78.9576 0005466 292.5154 67.5269 15.81301508 79909
ExAlta-1
1 42734U 98067MP 18291.61781678 .00200377 27015-4 47818-3 0 9994
2 42734 51.6216 69.8397 0007826 316.4818 43.5572 15.96146329 79951
Aoxiang-1
1 42735U 98067MQ 18291.75878822 .00032753 00000-0 24256-3 0 9991
2 42735 51.6353 89.7328 0004432 335.3731 112.2758 15.72593145 81121
BeEagleSat
1 42736U 98067MR 18291.70857107 .00036499 00000-0 23954-3 0 9995
2 42736 51.6320 86.5537 0004508 326.9133 33.1584 15.75354518 79856
CAS-4B
1 42759U 17034B 18291.75011339 .00000250 00000-0 28884-4 0 9993
2 42759 43.0190 124.8793 0009231 166.5796 251.2121 15.09397451 74127
CAS-4A
1 42761U 17034D 18291.86407035 .00000325 00000-0 33474-4 0 9994
2 42761 43.0184 123.9465 0009625 168.7981 282.3828 15.09474378 74130
UCLSat
1 42765U 17036A 18291.74463185 .00001334 00000-0 61127-4 0 9992
2 42765 97.3873 349.5275 0011883 11.8003 348.3509 15.22148848 73502
NIUSat
1 42766U 17036B 18291.78968707 .00001083 00000-0 52360-4 0 9997
2 42766 97.3871 348.5731 0015681 357.8884 2.2283 15.20636981 73319
LituanicaSAT 2
1 42768U 17036D 18291.83376142 .00002061 00000-0 93481-4 0 9997
2 42768 97.3895 349.1729 0015257 359.5165 0.6054 15.21852750 73369
Aalto 1
1 42775U 17036L 18291.13555261 .00000865 00000-0 42095-4 0 9994
2 42775 97.3864 348.1935 0014058 1.2163 358.9104 15.20948370 73186
URSA MAIOR
1 42776U 17036M 18291.11503777 .00000917 00000-0 44319-4 0 9997
2 42776 97.3871 348.2519 0013883 1.4537 358.6737 15.21045418 73187
Max Valier Sat
1 42778U 17036P 18290.90722553 .00001052 00000-0 49699-4 0 9997
2 42778 097.3899 348.5062 0012554 007.7897 352.3532 15.21552384073164
Pegasus
1 42784U 17036V 18290.81179440 .00001258 00000-0 58140-4 0 9994
2 42784 97.3876 348.5057 0012537 14.6635 345.4963 15.21942181 73167
NUDATSat
1 42787U 17036Y 18291.53336872 .00002231 00000-0 98723-4 0 9994
2 42787 97.3893 349.5472 0012679 10.3140 349.8354 15.22648207 73134
SUCHAI 1
1 42788U 17036Z 18291.40296249 .00001512 00000-0 68668-4 0 9990
2 42788 97.3877 349.2410 0012046 12.6614 347.4922 15.22260666 73331
SKCUBE
1 42789U 17036AA 18290.74886183 .00001385 00000-0 63254-4 0 9993
2 42789 097.3876 348.5805 0011966 014.9963 345.1626 15.22199605073153
VZLUSAT 1
1 42790U 17036AB 18290.86414249 .00001726 00000-0 77040-4 0 9995
2 42790 097.3885 348.8951 0011523 014.9520 345.2055 15.22656656073182
